Simultaneous Nadir Overpasses (SNOs) Predictions

Prediction of SNOs between AQUA and METOP-A Satellite Orbit:

Table of predicted SNOs for the next 14.0 days since TLE Epoch: 9/6/2012
Index Date (AQUA) Time (AQUA) AQUA Lat,Lon Date (METOP-A) Time (METOP-A) METOP-A Lat,Lon Distance(km) Time Diff (sec)
1 09/07/2012 23:01:45 -73.80, 8.82 09/07/2012 23:01:15 -73.81, 8.86 2.14 30
2 09/07/2012 23:51:14 73.88, 176.27 09/07/2012 23:51:54 73.87, 176.32 2.34 40
3 09/10/2012 17:46:16 73.05, -90.81 09/10/2012 17:45:11 73.04, -93.81 97.28 65
4 09/10/2012 18:35:55 -73.80, 75.26 09/10/2012 18:35:36 -73.82, 75.28 2.35 19
5 09/10/2012 19:25:24 73.89,-117.30 09/10/2012 19:26:15 73.87,-117.27 2.48 51
6 09/13/2012 13:20:34 73.54, -25.35 09/13/2012 13:19:23 73.48, -26.43 34.48 71
7 09/13/2012 14:10:05 -73.81, 141.70 09/13/2012 14:09:58 -73.81, 141.67 0.98 7
8 09/13/2012 14:59:34 73.91, -50.88 09/13/2012 15:00:36 73.91, -50.77 3.35 62
9 09/16/2012 08:54:47 73.77, 40.61 09/16/2012 08:53:39 73.76, 40.61 1.37 68
10 09/16/2012 09:44:14 -73.83,-151.87 09/16/2012 09:44:19 -73.84,-151.85 1.77 5
11 09/16/2012 10:33:44 73.98, 15.42 09/16/2012 10:34:56 73.98, 15.82 12.12 72
12 09/19/2012 04:28:55 73.79, 107.02 09/19/2012 04:28:00 73.76, 107.04 3.48 55
13 09/19/2012 05:18:22 -73.85, -85.46 09/19/2012 05:18:40 -73.85, -85.41 1.51 18




NCC Satellite Simultaneous Nadir Overpasses (SNOs) Prediction Service
